TimeCST,TemperatureF,Dew PointF,Humidity,Sea Level PressureIn,VisibilityMPH,Wind Direction,Wind SpeedMPH,Gust SpeedMPH,PrecipitationIn,Events,Conditions,WindDirDegrees,DateUTC
12:46 AM,37.4,37.4,100,29.87,2.5,SW,8.1,-,N/A,,Overcast,220,2013-02-22 06:46:00
12:53 AM,37.9,37.0,97,29.88,1.8,SW,10.4,-,N/A,,Overcast,230,2013-02-22 06:53:00
1:18 AM,37.4,35.6,93,29.90,0.8,WSW,11.5,-,N/A,,Mist,240,2013-02-22 07:18:00
1:25 AM,37.4,35.6,93,29.90,1.0,SW,9.2,-,N/A,,Mist,230,2013-02-22 07:25:00
1:34 AM,37.4,35.6,93,29.89,0.8,SW,8.1,-,N/A,,Mist,230,2013-02-22 07:34:00
1:53 AM,36.0,36.0,100,29.90,0.5,SW,10.4,-,N/A,Fog,Fog,220,2013-02-22 07:53:00
2:53 AM,35.1,35.1,100,29.91,0.5,SW,10.4,-,N/A,Fog,Fog,220,2013-02-22 08:53:00
3:53 AM,34.0,33.1,96,29.95,0.8,WSW,10.4,-,N/A,,Mist,250,2013-02-22 09:53:00
4:35 AM,33.8,33.8,100,29.96,1.0,WSW,9.2,-,N/A,,Mist,240,2013-02-22 10:35:00
4:53 AM,34.0,33.1,96,29.97,1.2,WSW,8.1,-,N/A,,Overcast,240,2013-02-22 10:53:00
5:27 AM,33.8,33.8,100,29.97,2.5,WSW,5.8,-,N/A,,Overcast,240,2013-02-22 11:27:00
5:41 AM,33.8,33.8,100,29.97,1.2,SW,4.6,-,N/A,,Overcast,220,2013-02-22 11:41:00
5:53 AM,33.1,33.1,100,29.98,0.8,SW,8.1,-,N/A,,Mist,220,2013-02-22 11:53:00
6:03 AM,33.8,33.8,100,29.98,1.0,SW,5.8,-,N/A,,Mist,220,2013-02-22 12:03:00
6:43 AM,33.8,33.8,100,29.99,0.8,SW,8.1,-,N/A,,Mist,220,2013-02-22 12:43:00
6:53 AM,34.0,33.1,96,30.01,0.8,WSW,5.8,-,N/A,,Mist,250,2013-02-22 12:53:00
7:03 AM,33.8,33.8,100,30.00,1.0,SW,6.9,-,N/A,,Mist,230,2013-02-22 13:03:00
7:14 AM,33.8,33.8,100,30.01,2.5,WSW,5.8,-,N/A,,Overcast,240,2013-02-22 13:14:00
7:25 AM,33.8,33.8,100,30.01,1.0,SW,6.9,-,N/A,,Overcast,230,2013-02-22 13:25:00
7:53 AM,34.0,33.1,96,30.04,1.0,WSW,6.9,-,N/A,,Overcast,240,2013-02-22 13:53:00
8:34 AM,33.8,33.8,100,30.06,3.0,WSW,6.9,-,N/A,,Overcast,240,2013-02-22 14:34:00
8:53 AM,35.1,34.0,96,30.07,4.0,SW,9.2,-,N/A,,Overcast,230,2013-02-22 14:53:00
9:53 AM,35.1,34.0,96,30.08,6.0,SSW,11.5,-,N/A,,Overcast,210,2013-02-22 15:53:00
10:53 AM,36.0,35.1,97,30.08,10.0,SW,8.1,-,0.01,,Overcast,220,2013-02-22 16:53:00
11:20 AM,37.4,35.6,93,30.08,10.0,SW,10.4,-,N/A,,Overcast,230,2013-02-22 17:20:00
11:53 AM,37.9,35.1,89,30.08,10.0,SW,8.1,-,N/A,,Overcast,230,2013-02-22 17:53:00
12:20 PM,39.2,35.6,87,30.06,10.0,SW,6.9,-,N/A,,Overcast,230,2013-02-22 18:20:00
12:53 PM,39.9,35.1,83,30.06,10.0,WSW,6.9,-,N/A,,Overcast,240,2013-02-22 18:53:00
1:42 PM,42.8,35.6,76,30.04,10.0,West,6.9,-,N/A,,Overcast,260,2013-02-22 19:42:00
1:53 PM,42.1,35.1,76,30.04,10.0,WSW,8.1,-,N/A,,Overcast,240,2013-02-22 19:53:00
2:53 PM,43.0,36.0,76,30.02,10.0,WSW,5.8,-,N/A,,Mostly Cloudy,250,2013-02-22 20:53:00
3:53 PM,44.1,37.0,76,30.03,10.0,West,5.8,-,N/A,,Overcast,260,2013-02-22 21:53:00
4:53 PM,43.0,36.0,76,30.03,10.0,West,4.6,-,N/A,,Overcast,280,2013-02-22 22:53:00
5:17 PM,42.8,35.6,76,30.03,10.0,West,6.9,-,N/A,,Scattered Clouds,280,2013-02-22 23:17:00
5:53 PM,41.0,34.0,76,30.05,10.0,Calm,Calm,-,N/A,,Clear,0,2013-02-22 23:53:00
6:36 PM,41.0,33.8,76,30.05,10.0,West,3.5,-,N/A,,Mostly Cloudy,270,2013-02-23 00:36:00
6:53 PM,39.0,35.1,86,30.07,10.0,WNW,4.6,-,N/A,,Mostly Cloudy,290,2013-02-23 00:53:00
7:03 PM,37.4,35.6,93,30.07,10.0,WNW,3.5,-,N/A,,Scattered Clouds,290,2013-02-23 01:03:00
7:12 PM,37.4,35.6,93,30.07,10.0,NW,5.8,-,N/A,,Mostly Cloudy,310,2013-02-23 01:12:00
7:29 PM,37.4,33.8,87,30.08,10.0,NNW,5.8,-,N/A,,Scattered Clouds,330,2013-02-23 01:29:00
7:53 PM,37.0,33.1,86,30.09,10.0,NW,6.9,-,N/A,,Clear,320,2013-02-23 01:53:00
8:53 PM,35.1,32.0,89,30.10,10.0,NNW,5.8,-,N/A,,Clear,330,2013-02-23 02:53:00
9:53 PM,34.0,30.9,89,30.11,10.0,North,8.1,-,N/A,,Clear,350,2013-02-23 03:53:00
10:53 PM,32.0,28.9,88,30.11,10.0,North,4.6,-,N/A,,Clear,350,2013-02-23 04:53:00
11:53 PM,30.9,28.0,89,30.10,10.0,North,4.6,-,0.01,,Clear,360,2013-02-23 05:53:00